Tracking 19283 objects as of 17-Nov-2018
HD Live streaming from Space Station
objects crossing your sky now

COSMOS 1828

Track COSMOS 1828 now!
10-day predictions
COSMOS 1828 is classified as:


NORAD ID: 17583
Int'l Code: 1987-026B
Perigee: 1,390.6 km
Apogee: 1,418.5 km
Inclination: 82.6 °
Period: 113.7 minutes
Semi major axis: 7775 km
RCS: 1.1912 m2 (large)
Launch date: March 13, 1987
Source: Commonwealth of Independent States (former USSR) (CIS)
Launch site: PLESETSK MISSILE AND SPACE COMPLEX (PKMTR)
aabbcc
Your satellite tracking list
Your tracking list is empty




NASA's NSSDC Master Catalog

Two Line Element Set (TLE):
1 17583U 87026B   18320.58002262 +.00000025 +00000-0 +74169-4 0  9994
2 17583 082.5635 148.8557 0017981 268.2986 144.9393 12.66208350464022
Source of the keplerian elements: AFSPC